Location: Montclair
(37.8322°N, 122.2092°W)
Time: 15:52:58
(UTC+00:00)

CZ-3 R/B - Pass Details

Date: 08 September 2024
Orbit: 506 x 10057 km, 28.3° (Epoch: 07 October)

Event Time Altitude Azimuth Distance (km) Brightness Sun altitude
Exits shadow 13:04:30 - 246° (WSW) 8,055 5.5 -8.8°
Reaches altitude 10° 13:06:13 10° 245° (WSW) 7,548 5.4 -8.4°
Maximum altitude 13:23:44 44° 182° (S) 2,159 3.2 -5.0°
Drops below altitude 10° 13:29:39 10° 110° (ESE) 2,662 4.9 -3.9°
Sets 13:31:28 0° 102° (ESE) 3,272 5.8 -3.5°
